Regional Weather Roundup
Issued by NWS San Angelo, TX

Home | Current Version | Previous Version | Text Only | Print | Product List | Glossary On
Versions: 1 2 3 4 5 6 7 8 9 10 11 12 13 14 15 16 17 18 19 20 21 22 23 24 25 26 27 28 29 30 31 32 33 34 35 36 37 38 39 40 41 42 43 44 45 46 47 48 49 50
000
ASUS44 KSJT 250211
RWRSJT
WEST CENTRAL TEXAS REGIONAL WEATHER ROUNDUP
NATIONAL WEATHER SERVICE SAN ANGELO TX
900 PM CDT SUN JUL 24 2016

NOTE: "FAIR" INDICATES FEW OR NO CLOUDS BELOW 12,000 FEET WITH NO
SIGNIFICANT WEATHER AND/OR OBSTRUCTIONS TO VISIBILITY.

TXZ049-054-064>066-071>073-076>078-098-099-113-114-127-128-139-140-
154-155-168>170-250300
...LOCATIONS ACROSS WEST CENTRAL TEXAS...

CITY           SKY/WX    TMP DP  RH WIND       PRES   REMARKS
SAN ANGELO     CLEAR     93  59  31 E8        29.90R
ABILENE        CLEAR     92  63  38 E12       29.93R
DYESS AFB      CLEAR     93  65  40 E10       29.91R
JUNCTION       CLEAR     93  62  35 SE10      29.91R
SWEETWATER     CLEAR     90  58  33 E7        29.97S
BROWNWOOD      CLEAR     90  61  37 E7        29.92R
COLEMAN        CLEAR     91  59  33 E8        29.93R
SONORA         CLEAR     95  59  30 E8        29.95R
OZONA          FAIR      91  55  29 SE7       29.94R
BRADY          NOT AVBL
$$

TEXAS PANHANDLE/OKLAHOMA PANHANDLE

CITY           SKY/WX    TMP DP  RH WIND       PRES   REMARKS
AMARILLO       CLEAR     88  58  36 SE15      30.04R
BORGER         CLEAR     93  56  28 SE12      29.98R
CANADIAN       CLEAR     91  62  38 S8        29.94R
DALHART        LGT RAIN  72  63  73 NW13G24   30.15R
DUMAS          PTCLDY    87  55  33 S7        30.04R
GUYMON         NOT AVBL
HEREFORD       CLEAR     90  54  28 S10       30.05R
PAMPA          CLEAR     89  57  34 SE12      30.02R
PERRYTON       PTCLDY    91  58  33 SE9       29.98R
$$

SOUTHERN PANHANDLE/SOUTH PLAINS/ROLLING PLAINS

CITY           SKY/WX    TMP DP  RH WIND       PRES   REMARKS
LUBBOCK        PTCLDY    90  55  30 S8        30.00R
SNYDER           N/A     92  60  34 SE7       29.95R
CHILDRESS      CLEAR     93  61  34 E5        29.92R
SEMINOLE       CLEAR     90  52  27 E6        29.99R
$$

PERMIAN BASIN

CITY           SKY/WX    TMP DP  RH WIND       PRES   REMARKS
MIDLAND        CLEAR     95  54  25 SE12      29.94R
ODESSA         CLEAR     95  53  24 SE13      29.95R
WINK           CLEAR     96  54  24 E12       29.90R
$$

FAR WEST/SOUTHWEST MOUNTAINS/TRANS PECOS

CITY           SKY/WX    TMP DP  RH WIND       PRES   REMARKS
ALPINE         CLEAR     87  54  31 SE13      30.08R
DRYDEN           N/A     94  58  29 E15       29.88R
EL PASO        TSTM      99  44  15 N17G26    29.90R
FORT STOCKTON  CLEAR     93  55  27 SE12      29.93R
GUADALUPE PASS CLEAR     87  44  22 E21       30.11R
MARFA          CLOUDY    87  56  34 E15       30.05R
PECOS          CLEAR     97  55  24 E17       29.87R
$$

DALLAS/FORT WORTH METROPLEX

CITY           SKY/WX    TMP DP  RH WIND       PRES   REMARKS
DFW AIRPORT    PTCLDY    92  69  47 SE9       29.89R
FTW MEACHAM    CLEAR     95  67  39 SE10      29.89R
DAL-EXECUTIVE  CLEAR     92  67  43 SE8       29.90R
GRAND PRAIRIE  CLEAR     92  67  43 SE6       29.91R
ADDISON        NOT AVBL
MESQUITE       CLOUDY    89  66  47 SE6       29.91R
LANCASTER      PTCLDY    91  69  49 SE3       29.92R
$$

NORTH CENTRAL TEXAS

CITY           SKY/WX    TMP DP  RH WIND       PRES   REMARKS
SHRMAN/DENISON PTCLDY    92  70  47 S7        29.93R
GAINESVILLE    CLEAR     88  71  57 SE3       29.94R
BRIDGEPORT     CLEAR     89  72  56 S3        29.92R
DENTON         CLEAR     91  70  49 SE7       29.90R
WAXAHACHIE     CLEAR     89  71  55 CALM      29.92R
GRANBURY       CLEAR     94  68  41 E8        29.91R
$$

WESTERN NORTH TEXAS

CITY           SKY/WX    TMP DP  RH WIND       PRES   REMARKS
WICHITA FALLS  CLEAR     89  70  53 SE9       29.90R
VERNON         CLEAR     94  58  29 SE10      29.90S
BRECKENRIDGE   CLEAR     92  62  36 SE7       29.91R
COMANCHE       CLEAR     89  63  41 SE7       29.93R
$$

CENTRAL AND SOUTH CENTRAL TEXAS

CITY           SKY/WX    TMP DP  RH WIND       PRES   REMARKS
AUSTIN/BERGSTM MOCLDY    92  69  47 S6        29.88R
WACO           CLEAR     91  67  44 SE7       29.89R
HILLSBORO      CLEAR     89  70  53 E8        29.91R
TEMPLE         CLEAR     92  70  48 SE8       29.91R
KILLEEN-GRAY   PTCLDY    91  67  44 SE9       29.91R
FORT HOOD      CLEAR     91  68  45 SE8       29.89R
GEORGETOWN     CLEAR     93  66  40 SE5       29.90R
LAGO VISTA     FAIR      90  65  44 SE3       29.93S
SAN MARCOS     MOCLDY    91  70  49 SE9       29.91R
NEW BRAUNFELS  CLOUDY    92  68  45 SE15      29.88R
RANDOLPH AFB   PTCLDY    91  70  50 SE12      29.89R
SAN ANTONIO    PTCLDY    93  68  43 SE13      29.89R
STINSON        PTCLDY    93  69  45 SE14      29.86R
PLEASANTON     NOT AVBL
LA GRANGE        N/A     91  75  60 SE8       29.89R
GIDDINGS       PTCLDY    89  72  57 SE13      29.94R
$$

EAST TEXAS

CITY           SKY/WX    TMP DP  RH WIND       PRES   REMARKS
PARIS          CLEAR     90  66  45 SE6       29.94R
CLARKSVILLE    NOT AVBL
TYLER          PTCLDY    84  73  69 E13       29.94R
LONGVIEW       CLOUDY    80  72  76 SE12      29.95R
PALESTINE      CLOUDY    89  74  60 NE5       29.92R
NACOGDOCHES    CLOUDY   N/A N/A N/A E17G24    29.96R
$$

TEXAS HILL COUNTRY AND EDWARDS PLATEAU

CITY           SKY/WX    TMP DP  RH WIND       PRES   REMARKS
LLANO          CLEAR     93  66  40 SE7       29.93R
HORSESHOE BAY  FAIR      91  65  43 SE5       29.91S
KERRVILLE      CLEAR     89  67  48 E6        29.93S
FREDERICKSBRG  CLEAR     88  61  40 CALM      29.95R
ROCKSPRINGS    MOCLDY    90  64  43 SE8       29.97R
HONDO          CLEAR     93  65  39 E9        29.89R
UVALDE         CLEAR     92  66  43 E6        29.87R
DEL RIO        CLEAR     98  62  30 E13       29.81R
$$

SOUTHEAST TEXAS

CITY           SKY/WX    TMP DP  RH WIND       PRES   REMARKS
COLLEGE STN    CLEAR     91  73  55 S10       29.90R
CALDWELL       CLEAR     90  70  51 SE12      29.93R
CROCKETT       CLEAR     88  73  62 CALM      29.94R
BRENHAM        CLEAR     88  74  62 SE7       29.92R
HUNTSVILLE     CLEAR     92  70  48 VRB5      29.92R
CONROE         CLOUDY    89  75  63 S12       29.92R
HOUSTON BUSH   CLOUDY    89  73  59 S8        29.91R
HOUSTON HOBBY  CLOUDY    87  75  67 S9        29.92R
PERLAND        MOCLDY    89  75  63 S6        29.93R
WHARTON        CLOUDY    85  74  71 S9        29.93R
$$

THE UPPER TEXAS COAST

CITY           SKY/WX    TMP DP  RH WIND       PRES   REMARKS
ORANGE         CLOUDY    83  74  75 CALM      29.95R
PORT ARTHUR    CLOUDY    83  77  82 S3        29.93R
GALVESTON      CLOUDY    86  78  77 S12       29.93S
ANGLETON       CLOUDY    86  77  74 S8        29.92R
BAY CITY       PTCLDY    84  77  79 SE3       29.93R
$$

TEXAS COASTAL BEND, RIO GRANDE PLAINS DEEP SOUTH TEXAS

CITY           SKY/WX    TMP DP  RH WIND       PRES   REMARKS
VICTORIA       PTCLDY    85  74  69 S12       29.91R
BEEVILLE       FAIR      86  76  70 SE12G18   29.90R
ROCKPORT       PTCLDY    86  76  71 SE13      29.89S
PORT ARANSAS   MOCLDY    85  79  82 SE12G18   29.90S
PORT LAVACA    CLEAR     84  78  82 SE9       29.91R
CORPUS CHRISTI MOCLDY    85  76  74 SE13      29.89R
KINGSVILLE NAS MOCLDY    85  79  82 SE12      29.88R
COTULLA        PTCLDY    95  69  42 SE20G31   29.84R
LAREDO         CLEAR     96  71  44 E21       29.81R
BROWNSVILLE    CLEAR     85  77  77 SE14      29.90R
PORT ISABEL    PTCLDY    85  77  77 SE17      29.89R
HEBBRONVILLE   CLEAR     90  72  54 SE18      29.88R
MCALLEN        CLEAR     90  73  57 SE22      29.87R
WESLACO        CLEAR     84   1   4 SE14G21   29.87R
FALFURRIAS     CLEAR     87  73  61 SE12G18   29.87R
EDINBURG       CLEAR     90  70  51 SE15G21   29.87R
$$



USA.gov is the U.S. government's official web portal to all federal, state and local government web resources and services.